Resoconti di bolidi

Feb 05, 2021 - Mar 08, 2021
Trovati resoconti: 4299  negli ultimi 30 giorni  Pagina 4 / 86
IDDate e tempo T.U. (Tempo Universale)Data e tempo localeRegioneCittàStatoDur.MagnitudineSuono differitoSuono contemporaneoFrag.OsservatoreLivello di esperienza
Evento 1325-2021
1325a2021-03-04 20:00 UT2021-03-04 15:00 ESTUS SanibelFL≈1,5s 0---RoyG 3
1325b2021-03-04 21:07 UT2021-03-04 16:07 ESTUS DavenportFL≈1,5s -12---MoniqueB 2
1325c2021-03-04 21:08 UT2021-03-04 16:08 ESTUS KissimmeeFL≈1,5s -12---EricT 2
Evento 1324-2021
1324a2021-03-04 13:28 UT2021-03-04 18:58 ISTIN Tamil Nadu≈1,5s -9---VigneshN 4
Evento 1323-2021
1323a2021-03-04 11:40 UT2021-03-04 05:40 CSTUS KeshenaWI≈20s -7--PatrickK 3
1323b2021-03-04 11:42 UT2021-03-04 05:42 CSTUS WaukeeIA>60s -4--?JosephM 1
Evento 1322-2021
1322a2021-03-04 09:25 UT2021-03-04 22:25 NZDTNZ HamiltonWaikato≈1,5s -5--?ChrisC 2
1322b2021-03-04 09:50 UT2021-03-04 22:50 NZDTNZ AucklandAuckland≈3,5s -14???VivianM 1
Evento 1321-2021
1321a2021-03-04 09:13 UT2021-03-04 03:13 CSTUS WickesAR≈3,5s -5--ShaundraS 2
Evento 1320-2021
1320a2021-03-04 08:30 UT2021-03-04 03:30 ESTUS ≈45s -11--?BrianB 3
1320b2021-03-04 08:30 UT2021-03-04 03:30 ESTUS Buffalo JunctionVA≈1,5s -13---WilliamC 1
1320c2021-03-04 08:32 UT2021-03-04 03:32 ESTUS FredericaDE≈3,5s -5---EricD 3
Evento 1319-2021
1319a2021-03-04 07:45 UT2021-03-04 00:45 MSTUS LakewoodCO<1s -9--RickyF 3
Evento 1318-2021
1318a2021-03-04 08:09 UT2021-03-04 02:09 CSTUS BellevilleIL≈1,5s -8?--AJZ 3
Evento 1317-2021
1317a2021-03-04 05:42 UT2021-03-03 21:42 PSTUS OkanoganWA<1s -6--?SeanJ 2
Evento 1316-2021
1316a2021-03-04 04:10 UT2021-03-03 22:10 CSTUS LeanderTX≈3,5s -16---BeverlyM 3
1316b2021-03-04 04:30 UT2021-03-03 22:30 CSTUS College StationTX<1s -4---MarshallA 2
Evento 1315-2021
1315a2021-03-04 03:40 UT2021-03-03 21:40 CSTUS Forest HillTX≈1,5s -11---SarahW 3
Evento 1314-2021
1314a2021-03-04 04:00 UT2021-03-03 21:00 MSTUS Belle FourcheSD<1s -9--?Jennifer D 1
Evento 1313-2021
1313a2021-03-04 03:20 UT2021-03-03 21:20 CSTUS New DealTX≈1,5s -14---JesseM 2
Evento 1312-2021
1312a2021-03-04 02:30 UT2021-03-03 20:30 CSTUS College StationTX<1s -13???NehemiahH 1
1312b2021-03-04 02:30 UT2021-03-03 20:30 CSTUS InglesideTX≈3,5s -5---LisaC 3
Evento 1311-2021
1311a2021-03-04 02:24 UT2021-03-03 21:24 ESTUS MedfordNJ<1s -14---MeghanP 2
Evento 1310-2021
1310a2021-03-04 02:10 UT2021-03-03 20:10 CSTUS RichardsonTX≈1,5s -13--?LO 2
Evento 1309-2021
1309a2021-03-04 01:45 UT2021-03-03 19:45 CSTUS CoppellTX≈3,5s -13---JarrodK 2
1309c2021-03-04 01:47 UT2021-03-03 19:47 CSTUS HoustonTX≈3,5s -13---LauraL 3
1309d2021-03-04 01:50 UT2021-03-03 19:50 CSTUS AustinTX≈3,5s -7--?CathyF 2
1309e2021-03-04 01:55 UT2021-03-03 19:55 CSTUS KyleTX≈7,5s -13???Catherine G 2
1309f2021-03-04 02:00 UT2021-03-03 20:00 CSTUS AlvinTX≈1,5s -5---LisaM 3
Evento 1308-2021
1308a2021-03-04 01:36 UT2021-03-03 19:36 CSTUS BrazoriaTX≈7,5s -7???RobinB 3
1308b2021-03-04 01:45 UT2021-03-03 19:45 CSTUS KatyTX≈1,5s -11---MICHAELR 3
1308c2021-03-04 01:47 UT2021-03-03 19:47 CSTUS PflugervilleTX≈3,5s -10---StefanV 4
1308d2021-03-04 01:45 UT2021-03-03 19:45 CSTUS GladewaterTX≈3,5s -9---DebbieM 1
1308e2021-03-04 01:48 UT2021-03-03 19:48 CSTUS TomballTX≈3,5s -10--?RafaelP 2
1308f2021-03-04 01:49 UT2021-03-03 19:49 CSTUS BryanTX≈1,5s -10--?jasS 1
1308g2021-03-04 01:50 UT2021-03-03 19:50 CSTUS GeorgetownTX≈3,5s -13---MD 1
1308h2021-03-04 02:00 UT2021-03-03 20:00 CSTUS MagnoliaTX≈3,5s -18---CrystalH 4
1308i2021-03-04 01:45 UT2021-03-03 19:45 CSTUS League CityTX≈3,5s -11?-?MackenzieF 3
Evento 1307-2021
1307a2021-03-04 01:35 UT2021-03-03 19:35 CSTUS VeniceNE≈3,5s -13---SaraB 1
1307b2021-03-04 01:35 UT2021-03-03 19:35 CSTUS HancockIA≈3,5s -8--?KariM 1
Evento 1306-2021
1306a2021-03-03 06:28 UT2021-03-03 06:28 GMTGB HayesEngland≈3,5s -16???EmmaG 1
Evento 1305-2021
1305a2021-03-03 04:25 UT2021-03-02 22:25 CSTUS BrownwoodTX≈7,5s -9---LeslieB 3
Evento 1304-2021
1304a2021-03-03 02:50 UT2021-03-02 20:50 CSTUS FayettevilleAR≈3,5s -8--?LiaJ 2
Evento 1303-2021
1303a2021-03-03 22:25 UT2021-03-03 22:25 GMTGB England≈3,5s -5---TinaL 2
Evento 1302-2021
1302a2021-03-03 20:13 UT2021-03-04 03:13 7 fusi orari TH NonthaburiNonthaburi≈1,5s -15---JuanM 2
Evento 1301-2021
1301a2021-03-03 18:45 UT2021-03-03 19:45 CETFR LanciéAuvergne-Rhône-Alpes≈3,5s -10??-AgnèsD 3
Evento 1300-2021
1300a2021-03-03 02:00 UT2021-03-02 21:00 ESTUS StevensvilleMI≈1,5s -5---XX 2
Evento 1299-2021
1299a2021-03-02 19:30 UT2021-03-02 20:30 CETFR Le TilleulNormandie≈3,5s -24---anneL 1
Evento 1298-2021
1298a2021-02-27 03:00 UT2021-02-26 19:00 PSTUS CA≈1,5s -16---HudsonE 4
Evento 1297-2021
1297a2021-02-21 04:15 UT2021-02-20 23:15 ESTUS GrantvilleGA≈3,5s -17-??AlexandriaD 2